Location: La Pernelle
(49.6188°N, 1.2999°W)
Time: 10:08:10
(UTC+00:00)

Cosmos 1953 - Pass Details

Date: 12 June 2021
Orbit: 537 x 557 km, 82.5° (Epoch: 03 August)

Event Time Altitude Azimuth Distance (km) Brightness Sun altitude
Rises 21:25:20 0° 355° (N) 2,752 7.0 -9.0°
Reaches altitude 10° 21:27:37 10° 3° (N) 1,854 5.8 -9.2°
Maximum altitude 21:31:30 41° 75° (ENE) 814 3.0 -9.6°
Enters shadow 21:34:45 14° 143° (SE) 1,613 4.0 -9.9°
